Location: Bishausen
(51.6334°N, 9.9631°E)
Time: 17:42:51
(UTC+00:00)

Cosmos 1190 Rocket - Pass Details

Date: 23 May 2024
Orbit: 754 x 778 km, 74.1° (Epoch: 24 June)

Event Time Altitude Azimuth Distance (km) Brightness Sun altitude
Exits shadow 00:51:15 20° 226° (SW) 1,714 5.3 -14.8°
Maximum altitude 00:54:47 57° 300° (WNW) 909 4.4 -14.6°
Drops below altitude 10° 01:00:01 10° 19° (NNE) 2,339 7.9 -14.3°
Sets 01:02:28 0° 24° (NNE) 3,273 9.3 -14.1°
